Lid_Strength_Index
3 2 1 1 1 1 2 4 10 2 1 10 9 12 10 9 9 7 8 8 9 10 10 12 12 12 10 9 9 12 10 11 14 14 11 11 11 12 13 15 17 16 16 15
3 3 2 1 2 1 3 7 8 3 3 12 12 10 10 9 9 9 9 9 9 8 10 12 11 10 8 9 10 11 10 13 18 15 15 14 15 13 12 13 14 16 17 15
2 2 2 1 2 2 3 6 10 8 7 7 10 11 11 11 8 9 8 9 8 10 10 9 10 10 11 10 10 9 9 13 15 17 13 12 15 14 13 14 16 15 15 13
1 2 2 2 2 2 3 6 10 8 12 11 10 10 10 12 12 9 9 10 10 11 13 12 11 10 13 12 11 11 10 15 13 12 11 11 13 14 14 15 14 15 13 13
1 1 1 1 2 2 4 8 8 8 8 9 10 10 11 12 11 10 11 11 10 9 12 11 13 10 11 12 12 13 12 15 13 15 12 12 14 13 13 14 14 13 12 12
0 1 0 1 1 2 4 5 7 8 9 10 11 12 11 11 9 9 8 10 10 11 10 8 9 10 9 9 12 14 14 15 16 17 13 14 18 15 13 13 12 12 14 12
1 0 0 0 0 1 2 4 6 11 12 10 11 10 10 11 9 11 10 9 10 10 10 11 12 14 14 13 14 13 15 15 15 17 16 21 14 11 12 12 12 11 12 13
1 0 0 0 -0 0 3 4 6 10 12 10 10 10 10 9 9 10 10 10 9 9 11 15 16 16 16 16 16 15 13 14 16 18 18 14 14 17 14 13 13 10 12 13
2 1 0 0 0 -0 2 3 3 7 11 11 10 10 10 11 11 13 14 14 13 11 13 15 17 18 15 17 18 17 16 14 15 17 19 20 16 14 13 11 16 12 12 13
2 1 1 0 0 -0 2 2 2 6 10 8 10 12 12 11 12 13 15 15 14 14 15 15 15 16 14 17 18 19 18 17 18 16 17 15 14 16 14 16 15 14 12 13
2 1 1 1 0 -0 2 4 2 5 9 8 9 10 12 12 13 15 14 14 15 15 15 14 15 15 15 16 16 17 17 17 17 16 17 18 15 17 15 13 15 13 11 12
1 2 1 1 0 0 2 5 3 4 7 8 8 8 9 10 10 12 13 13 14 13 14 13 14 16 16 15 17 16 17 14 15 14 15 17 15 15 14 13 12 14 13 12
0 1 1 1 0 -0 1 4 4 5 7 8 9 10 8 8 9 8 12 12 12 12 12 12 13 15 15 17 16 16 16 16 15 15 16 16 15 13 14 14 14 13 13 13
-0 0 1 1 0 -0 1 5 4 4 6 9 9 8 9 8 8 9 9 10 11 11 11 12 13 14 15 15 15 15 16 15 16 18 17 16 14 14 13 13 14 14 14 13
-0 -0 -0 1 0 0 0 1 3 3 5 9 9 10 9 9 8 9 9 10 10 11 12 13 13 14 15 15 16 16 16 16 16 16 15 13 14 12 11 13 14 14 14 15
-0 -0 -0 0 0 -0 3 8 4 3 3 8 11 9 10 10 9 9 8 9 10 11 12 13 14 14 13 14 14 14 13 13 12 13 12 12 11 10 11 13 13 13 13 13
-0 -0 -0 -0 -0 1 6 6 4 2 2 8 11 11 10 9 9 10 10 10 11 11 13 13 14 14 12 15 16 14 13 13 13 12 13 14 13 13 12 12 12 12 14 13
-0 0 0 -0 -0 1 4 2 1 2 6 7 11 14 12 9 11 11 10 11 10 10 11 12 13 14 13 16 14 13 12 12 12 12 12 12 12 13 13 13 13 14 14 13
-0 -0 -0 1 2 6 5 0 0 2 5 9 11 14 14 9 10 10 10 9 12 10 12 12 11 13 15 13 13 12 11 12 11 11 12 13 12 12 12 13 14 13 12 13
-0 1 4 6 5 2 0 4 6 7 7 7 9 9 13 10 10 11 11 10 12 14 12 11 13 13 14 16 17 17 17 17 13 13 13 14 14 13 13 13 12 12 12 13
2 5 6 4 1 5 7 9 9 9 10 9 11 10 12 9 11 12 10 12 11 15 13 13 14 14 18 20 20 20 20 19 18 18 16 14 13 11 11 12 12 13 14 15
3 3 4 6 6 8 10 11 10 10 12 13 11 11 9 10 8 10 11 12 12 15 12 13 15 16 22 23 23 23 23 24 22 20 19 18 18 18 17 16 17 19 19 19
3 5 7 8 9 13 14 15 14 14 12 12 11 12 11 10 8 10 11 13 14 11 13 14 14 21 23 25 25 26 25 25 23 22 22 21 22 23 23 21 22 21 23 23
6 9 13 12 13 12 11 11 11 11 10 11 9 11 10 10 11 11 13 13 12 14 16 16 19 24 26 26 26 28 28 27 26 25 24 24 24 25 26 25 24 24 24 24
8 9 14 13 17 17 18 17 13 13 8 9 10 10 10 11 12 12 14 16 16 14 15 19 22 25 27 27 28 29 29 28 27 26 26 26 26 26 27 27 26 25 25 25
14 17 15 16 14 16 15 13 14 12 9 8 9 11 12 13 12 14 15 15 16 18 22 23 24 27 28 28 29 29 29 28 28 28 27 27 28 28 27 27 26 26 25 25
16 20 19 20 17 18 18 15 15 13 10 12 11 14 14 12 15 18 23 22 24 23 24 24 26 28 29 29 29 30 29 28 27 27 27 27 27 25 25 26 26 25 26 26